Location: Unspecified
(0.0000°N, 0.0000°E)
Time: 02:31:53
(UTC+00:00)

Altair - Visible Passes

Search period start: 24 July 2014 00:00
Search period end: 03 August 2014 00:00
Orbit: 1502 x 1682 km, 47.2° (Epoch: 21 July)

Date Brightness Start Highest point End Pass type
(mag) Time Alt. Az. Time Alt. Az. Time Alt. Az.
24 Jul 9.6 01:35:02 13° NE 01:35:02 13° NE 01:35:52 10° NE visible
24 Jul 8.6 03:33:04 24° NNW 03:33:04 24° NNW 03:38:34 10° N visible
25 Jul 8.8 03:09:25 24° NNW 03:09:25 24° NNW 03:13:49 10° N visible
26 Jul 9.0 02:45:43 22° N 02:45:43 22° N 02:49:01 10° NNE visible
27 Jul 9.2 02:21:59 18° N 02:21:59 18° N 02:24:11 10° NNE visible
28 Jul 9.5 01:58:12 14° NNE 01:58:12 14° NNE 01:59:18 10° NNE visible
29 Jul 9.7 01:34:22 10° NNE 01:34:22 10° NNE 01:34:24 10° NNE visible
